Weather History for Pampa / Mesa Vista, TX

Change the Weather History Date:

Wednesday, January 8, 2014

  Actual Average (KBGD) Record (KBGD)
Temperature  
Mean Temperature 34 °F 38 °F  
Max Temperature 41 °F 50 °F 74 °F (2002)
Min Temperature 26 °F 26 °F 2 °F (1979)
Degree Days  
Heating Degree Days 32 27  
Month to date heating degree days 220  
Since 1 July heating degree days 1757  
Cooling Degree Days 0 0  
Month to date cooling degree days 0  
Year to date cooling degree days 0  
Moisture  
Dew Point 23 °F    
Average Humidity 67    
Maximum Humidity 86    
Minimum Humidity 45    
Precipitation  
Precipitation 0.00 in 0.01 in 0.29 in (1997)
Month to date precipitation 0.13  
Year to date precipitation 0.13  
Snow  
Snow 0.00 in - 3.50 in (1997)
Month to date snowfall  
Since 1 July snowfall  
Snow Depth -    
Sea Level Pressure  
Sea Level Pressure 30.02 in    
Wind  
Wind Speed 10 mph (NNW)    
Max Wind Speed 18 mph    
Max Gust Speed 25 mph    
Visibility 10 miles    
Events      
T = Trace of Precipitation, MM = Missing Value Source: NWS Daily Summary

Daily Weather History Graph

Daily Weather History Graph

Search for Another Location

Airport:

Trip Planner

Search our weather history database for the weather conditions in past years. The results will help you decide how hot, cold, wet, or windy it might be!

Date:

Astronomy

Jan. 08, 2014 Rise Set
Actual Time 7:54 AM CST 5:47 PM CST
Civil Twilight 7:26 AM CST 6:15 PM CST
Nautical Twilight 6:54 AM CST 6:47 PM CST
Astronomical Twilight 6:24 AM CST 7:18 PM CST
Moon 12:34 PM CST (1/8) 1:09 AM CST (1/8)
Length of Visible Light 10h 48m
Length of Day
9h 52m
First Quarter, 56% of the Moon is Illuminated
Jan 8
First Quarter
Jan 15
Full
Jan 23
Last Quarter
Jan 30
New
Feb 6
First Quarter

Hourly Weather History & Observations

Time (CST) Temp. Windchill Dew Point Humidity Pressure Visibility Wind Dir Wind Speed Gust Speed Precip Events Conditions
12:15 AM 39.2 °F 32.0 °F 19.4 °F 45% 29.91 in 10.0 mi South 11.5 mph 17.3 mph N/A   Clear
12:35 AM 39.2 °F 31.6 °F 19.4 °F 45% 29.90 in 10.0 mi South 12.7 mph 19.6 mph N/A   Clear
12:55 AM 39.2 °F 34.2 °F 19.4 °F 45% 29.91 in 10.0 mi SW 6.9 mph - N/A   Clear
1:15 AM 37.4 °F 30.3 °F 19.4 °F 48% 29.89 in 10.0 mi South 10.4 mph - N/A   Clear
1:35 AM 37.4 °F 32.1 °F 19.4 °F 48% 29.88 in 10.0 mi South 6.9 mph - N/A   Clear
1:55 AM 35.6 °F 28.6 °F 19.4 °F 52% 29.87 in 10.0 mi SSW 9.2 mph - N/A   Clear
2:15 AM 37.4 °F 29.8 °F 19.4 °F 48% 29.88 in 10.0 mi SSW 11.5 mph - N/A   Clear
2:35 AM 35.6 °F 29.2 °F 19.4 °F 52% 29.87 in 10.0 mi SSW 8.1 mph - N/A   Clear
2:55 AM 35.6 °F 30.7 °F 19.4 °F 52% 29.87 in 10.0 mi South 5.8 mph - N/A   Clear
3:15 AM 33.8 °F 26.4 °F 19.4 °F 56% 29.87 in 10.0 mi South 9.2 mph - N/A   Clear
3:35 AM 32.0 °F 24.8 °F 19.4 °F 60% 29.87 in 10.0 mi South 8.1 mph - N/A   Clear
3:55 AM 32.0 °F 25.6 °F 19.4 °F 60% 29.86 in 10.0 mi South 6.9 mph - N/A   Clear
4:15 AM 32.0 °F 25.6 °F 21.2 °F 64% 29.86 in 10.0 mi South 6.9 mph - N/A   Clear
4:35 AM 32.0 °F 25.6 °F 19.4 °F 60% 29.86 in 10.0 mi SSW 6.9 mph - N/A   Clear
4:55 AM 32.0 °F 26.4 °F 19.4 °F 60% 29.86 in 10.0 mi SSW 5.8 mph - N/A   Clear
5:15 AM 30.2 °F 24.3 °F 19.4 °F 64% 29.86 in 10.0 mi SSW 5.8 mph - N/A   Clear
5:35 AM 30.2 °F 22.6 °F 19.4 °F 64% 29.86 in 10.0 mi SW 8.1 mph - N/A   Clear
5:55 AM 30.2 °F 21.3 °F 19.4 °F 64% 29.87 in 10.0 mi WSW 10.4 mph - N/A   Clear
6:15 AM 30.2 °F 21.3 °F 19.4 °F 64% 29.87 in 10.0 mi WSW 10.4 mph - N/A   Clear
6:35 AM 28.4 °F 20.4 °F 17.6 °F 64% 29.88 in 10.0 mi West 8.1 mph - N/A   Clear
6:55 AM 30.2 °F 21.9 °F 21.2 °F 69% 29.89 in 10.0 mi WNW 9.2 mph - N/A   Clear
7:15 AM 28.4 °F 21.2 °F 23.0 °F 80% 29.91 in 10.0 mi WNW 6.9 mph - N/A   Clear
7:35 AM 28.4 °F 20.4 °F 23.0 °F 80% 29.92 in 10.0 mi NW 8.1 mph - N/A   Clear
7:55 AM 28.4 °F 22.2 °F 24.8 °F 86% 29.93 in 10.0 mi NW 5.8 mph - N/A   Clear
8:15 AM 28.4 °F 21.2 °F 24.8 °F 86% 29.94 in 10.0 mi NNW 6.9 mph - N/A   Clear
8:35 AM 28.4 °F 19.1 °F 24.8 °F 86% 29.95 in 10.0 mi NW 10.4 mph - N/A   Clear
8:55 AM 30.2 °F 22.6 °F 24.8 °F 80% 29.97 in 10.0 mi NW 8.1 mph - N/A   Clear
9:15 AM 30.2 °F 20.2 °F 23.0 °F 75% 29.99 in 10.0 mi NNW 12.7 mph 17.3 mph N/A   Clear
9:35 AM 32.0 °F 22.1 °F 23.0 °F 69% 30.00 in 10.0 mi North 13.8 mph 18.4 mph N/A   Clear
9:55 AM 32.0 °F 21.6 °F 24.8 °F 75% 30.02 in 10.0 mi North 15.0 mph 19.6 mph N/A   Clear
10:15 AM 32.0 °F 22.1 °F 24.8 °F 75% 30.04 in 10.0 mi North 13.8 mph - N/A   Clear
10:35 AM 33.8 °F 23.9 °F 24.8 °F 70% 30.05 in 10.0 mi North 15.0 mph 21.9 mph N/A   Clear
10:55 AM 33.8 °F 22.8 °F 24.8 °F 70% 30.05 in 10.0 mi North 18.4 mph 23.0 mph N/A   Clear
11:15 AM 35.6 °F 25.9 °F 26.6 °F 70% 30.06 in 10.0 mi North 16.1 mph - N/A   Clear
11:35 AM 35.6 °F 25.5 °F 26.6 °F 70% 30.05 in 10.0 mi North 17.3 mph 23.0 mph N/A   Clear
11:55 AM 37.4 °F 27.8 °F 24.8 °F 60% 30.06 in 10.0 mi NNE 17.3 mph 21.9 mph N/A   Clear
12:15 PM 37.4 °F 27.8 °F 24.8 °F 60% 30.06 in 10.0 mi North 17.3 mph 20.7 mph N/A   Clear
12:35 PM 37.4 °F 28.9 °F 24.8 °F 60% 30.05 in 10.0 mi North 13.8 mph 20.7 mph N/A   Clear
12:55 PM 37.4 °F 27.8 °F 24.8 °F 60% 30.05 in 10.0 mi North 17.3 mph 23.0 mph N/A   Clear
1:15 PM 39.2 °F 30.8 °F 24.8 °F 56% 30.05 in 10.0 mi North 15.0 mph 25.3 mph N/A   Clear
1:35 PM 41.0 °F 32.5 °F 24.8 °F 53% 30.05 in 10.0 mi NNE 17.3 mph 25.3 mph N/A   Clear
1:55 PM 39.2 °F 30.2 °F 24.8 °F 56% 30.04 in 10.0 mi North 17.3 mph 25.3 mph N/A   Clear
2:15 PM 41.0 °F 33.1 °F 24.8 °F 53% 30.05 in 10.0 mi North 15.0 mph 23.0 mph N/A   Clear
2:35 PM 41.0 °F 32.8 °F 24.8 °F 53% 30.05 in 10.0 mi North 16.1 mph 24.2 mph N/A   Clear
2:55 PM 41.0 °F 32.8 °F 26.6 °F 57% 30.05 in 10.0 mi North 16.1 mph 20.7 mph N/A   Clear
3:15 PM 41.0 °F 33.1 °F 24.8 °F 53% 30.06 in 10.0 mi North 15.0 mph 20.7 mph N/A   Clear
3:35 PM 41.0 °F 33.1 °F 23.0 °F 49% 30.06 in 10.0 mi NNE 15.0 mph 23.0 mph N/A   Clear
3:55 PM 39.2 °F 30.8 °F 23.0 °F 52% 30.06 in 10.0 mi NNE 15.0 mph 21.9 mph N/A   Clear
4:15 PM 39.2 °F 30.5 °F 23.0 °F 52% 30.06 in 10.0 mi NNE 16.1 mph - N/A   Clear
4:35 PM 37.4 °F 28.9 °F 23.0 °F 56% 30.07 in 10.0 mi NNE 13.8 mph 19.6 mph N/A   Clear
4:55 PM 37.4 °F 29.3 °F 23.0 °F 56% 30.08 in 10.0 mi NNE 12.7 mph - N/A   Clear
5:15 PM 35.6 °F 27.1 °F 23.0 °F 60% 30.07 in 10.0 mi NE 12.7 mph 17.3 mph N/A   Clear
5:35 PM 35.6 °F 29.2 °F 23.0 °F 60% 30.09 in 10.0 mi NE 8.1 mph - N/A   Clear
5:55 PM 33.8 °F 28.6 °F 23.0 °F 65% 30.10 in 10.0 mi NNE 5.8 mph - N/A   Clear
6:15 PM 32.0 °F 27.5 °F 23.0 °F 69% 30.11 in 10.0 mi North 4.6 mph - N/A   Clear
6:35 PM 32.0 °F 25.6 °F 24.8 °F 75% 30.11 in 10.0 mi North 6.9 mph - N/A   Clear
6:55 PM 30.2 °F 25.4 °F 24.8 °F 80% 30.13 in 10.0 mi NNW 4.6 mph - N/A   Clear
7:15 PM 30.2 °F 25.4 °F 24.8 °F 80% 30.14 in 10.0 mi North 4.6 mph - N/A   Clear
7:35 PM 30.2 °F 26.7 °F 24.8 °F 80% 30.15 in 10.0 mi North 3.5 mph - N/A   Clear
7:55 PM 30.2 °F - 24.8 °F 80% 30.17 in 10.0 mi Calm Calm - N/A   Clear
8:15 PM 26.6 °F 20.0 °F 23.0 °F 86% 30.19 in 10.0 mi West 5.8 mph - N/A   Clear
8:35 PM 26.6 °F 21.2 °F 23.0 °F 86% 30.19 in 10.0 mi West 4.6 mph - N/A   Clear
8:55 PM 26.6 °F 22.6 °F 23.0 °F 86% 30.18 in 10.0 mi NNW 3.5 mph - N/A   Clear
9:15 PM 26.6 °F 22.6 °F 23.0 °F 86% 30.18 in 10.0 mi NNW 3.5 mph - N/A   Mostly Cloudy
9:35 PM 28.4 °F - 24.8 °F 86% 30.18 in 10.0 mi Calm Calm - N/A   Mostly Cloudy
9:55 PM 28.4 °F 24.6 °F 24.8 °F 86% 30.18 in 10.0 mi NNW 3.5 mph - N/A   Scattered Clouds
10:15 PM 28.4 °F 24.6 °F 23.0 °F 80% 30.17 in 10.0 mi North 3.5 mph - N/A   Scattered Clouds
10:35 PM 28.4 °F - 23.0 °F 80% 30.17 in 10.0 mi Calm Calm - N/A   Clear
10:55 PM 28.4 °F - 23.0 °F 80% 30.17 in 10.0 mi Calm Calm - N/A   Clear
11:15 PM 26.6 °F - 23.0 °F 86% 30.17 in 10.0 mi Calm Calm - N/A   Clear
11:35 PM 26.6 °F - 23.0 °F 86% 30.17 in 10.0 mi Calm Calm - N/A   Clear
11:55 PM 28.4 °F - 23.0 °F 80% 30.16 in 10.0 mi Calm Calm - N/A   Unknown